Overview Statistics Trail Chart Weather Telemetry Raw packets
 

This is the latest recevied weather packets stored in our database for station/object VK5GR-12. If no packets are shown the sender has not sent any weather packets the latest 10 day(s).

<< 9 10 11 12 13 14 15 >>
Time Temp. Humidity Pressure Rain* Wind** Luminosity Snow
1788427999 13.89° C 72% 1020.5 hPa 0 mm - 0 W/m² -
1788427099 13.89° C 71% 1020.3 hPa 0 mm - 0 W/m² -
1788426194 13.89° C 70% 1020.2 hPa 0 mm - 0 W/m² -
1788425291 13.89° C 71% 1020.2 hPa 0 mm - 0 W/m² -
1788424388 13.89° C 70% 1019.9 hPa 0 mm - 1 W/m² -
1788423495 14.44° C 69% 1020 hPa 0 mm - 4 W/m² -
1788422577 14.44° C 68% 1019.6 hPa 0 mm - 12 W/m² -
1788421676 15° C 67% 1019.6 hPa 0 mm - 17 W/m² -
1788420774 15° C 67% 1019.5 hPa 0 mm - 60 W/m² -
1788419874 15° C 68% 1019.4 hPa 0 mm - 52 W/m² -
1788418971 15.56° C 68% 1019.4 hPa 0 mm - 89 W/m² -
1788418070 15° C 68% 1019.3 hPa 0 mm - 78 W/m² -
1788417168 16.11° C 67% 1019.1 hPa 0 mm - 86 W/m² -
1788416286 16.11° C 65% 1019.1 hPa 0 mm - 143 W/m² -
1788415361 16.11° C 66% 1019.1 hPa 0 mm - 239 W/m² -
1788414458 15° C 68% 1019.1 hPa 0 mm - 223 W/m² -
1788413556 15.56° C 69% 1019.1 hPa 0 mm - 118 W/m² -
1788412654 15.56° C 70% 1019.1 hPa 0 mm - 227 W/m² -
1788411750 16.11° C 71% 1019.1 hPa 0 mm - 141 W/m² -
1788410849 15.56° C 73% 1018.9 hPa 0 mm - 192 W/m² -
1788409946 15.56° C 74% 1018.7 hPa 0 mm - 160 W/m² -
1788409043 15.56° C 73% 1018.8 hPa 0 mm - 229 W/m² -
1788408139 15.56° C 75% 1018.6 hPa 0 mm - 181 W/m² -
1788407236 15.56° C 77% 1018.6 hPa 0 mm - 175 W/m² -
1788406333 15° C 76% 1018.8 hPa 0 mm - 236 W/m² -

* Rain latest hour (hover to see other rain measurements)
** Current wind speed in m/s (hover to see current wind gust speed)